COSMOS 2042

导读

COSMOS 2042(宇宙2042)是苏联(独立国家联合体CIS)于1989年9月14日发射的无人卫星,隶属于苏联/俄罗斯“宇宙”(Kosmos)卫星系列。该系列自1960年代启动,涵盖多类应用,多数为军用任务,包含侦察、通信、导航等用途,也承担空间物理探测等科研任务,是苏俄规模最大的卫星家族之一。

Basic Information
目录编号:
20236
目录名称:
COSMOS 2042
国际标识:
1989-074E
轨道中心:
EARTH
卫星名称:
COSMOS 2042
卫星全名:
--
卫星状态:
在轨 (已飞行13425 天)
发射日期:
1989-09-14 UTC
国别 :
俄罗斯(独联体) (CIS)
星等 :
--
Orbit Information
数据来源 国际轨道数据 AOE轨道数据
星历时间 2026-06-17T22:37:22+0800
5小时前
查看轨道信息
2026-06-17T01:00:00+0800
1天前
查看轨道信息
半长轴 7783.665km 7783.662km
偏心率 0.0006247 0.0006167
轨道倾角 82.582° 82.582°
近地点辐角 125.620° 127.598°
升交点赤经 218.077° 218.654°
平近点角 355.185° 214.849°
近地点 1400.665km 1400.724km
远地点 1410.391km 1410.326km
周期 113.903分钟 113.903分钟
每日圈数 12.642314 12.642323
Detailed Information
使用方式:
暂无
2D Orbit Map
3D Orbit Map
Orbit Altitude Analysis Chart
Orbit Inclination Analysis Chart
Orbit Comprehensive Analysis Chart
View Comprehensive Chart